User: anonymous   Login
Location: Songkhla
(7.2000°N, 100.6000°E)
Time: 09:46:03
(UTC+07:00)
Language:

AO-92 - Orbit

View from above orbital plane
View from above orbital plane
View from above satellite
View from above satellite

Ground track
Ground track

The orbit data is extracted from the following two-line orbital elements,

1 43137U 18004AC  21216.15574848  .00001588  00000-0  65597-4 0  9993
2 43137  97.4047 289.6998 0009955  51.0225 309.1899 15.25442403197933
Epoch (UTC): 04 August 2021 03:44:16
Eccentricity: 0.0009955
inclination: 97.4047°
perigee height: 482 km
apogee height: 496 km
right ascension of ascending node: 289.6998°
argument of perigee: 51.0225°
revolutions per day: 15.25442403
mean anomaly at epoch: 309.1899°
orbit number at epoch: 19793

The dashed part of the orbit path shows where the satellite is in the earth's shadow,  

DLR